This is the latest recevied weather packets stored in our database for station/object WB9ZLM. If no packets are shown the sender has not sent any weather packets the latest 10 day(s).
| Time | Temp. | Humidity | Pressure | Rain* | Wind** | Luminosity | Snow |
|---|---|---|---|---|---|---|---|
| 1777679160 | 12.22° C | 45% | 1018.5 hPa | 0 mm | - | - | - |
| 1777678321 | 12.22° C | 47% | 1018.7 hPa | 0 mm | - | - | - |
| 1777678261 | 12.22° C | 47% | 1018.7 hPa | 0 mm | - | - | - |
| 1777677421 | 12.22° C | 47% | 1018.9 hPa | 0 mm | - | - | - |
| 1777677360 | 12.22° C | 47% | 1018.9 hPa | 0 mm | - | - | - |
| 1777676521 | 12.22° C | 45% | 1018.9 hPa | 0 mm | - | - | - |
| 1777676460 | 12.22° C | 45% | 1018.9 hPa | 0 mm | - | - | - |
| 1777675621 | 12.22° C | 46% | 1018.8 hPa | 0 mm | - | - | - |
| 1777675560 | 12.22° C | 46% | 1018.8 hPa | 0 mm | - | - | - |
| 1777674722 | 12.22° C | 43% | 1018.9 hPa | 0 mm | - | - | - |
| 1777674661 | 12.22° C | 43% | 1018.9 hPa | 0 mm | - | - | - |
| 1777673822 | 12.78° C | 47% | 1018.8 hPa | 0 mm | - | - | - |
| 1777673760 | 12.78° C | 47% | 1018.8 hPa | 0 mm | - | - | - |
| 1777672921 | 12.78° C | 46% | 1019 hPa | 0 mm | - | - | - |
| 1777672860 | 12.78° C | 46% | 1019 hPa | 0 mm | - | - | - |
| 1777672022 | 13.33° C | 49% | 1018.9 hPa | 0 mm | - | - | - |
| 1777671960 | 13.33° C | 49% | 1018.9 hPa | 0 mm | - | - | - |
| 1777671121 | 12.78° C | 49% | 1019 hPa | 0 mm | - | - | - |
| 1777671060 | 12.78° C | 49% | 1019 hPa | 0 mm | - | - | - |
| 1777670221 | 12.78° C | 46% | 1019.1 hPa | 0 mm | - | - | - |
| 1777670160 | 12.78° C | 46% | 1019.1 hPa | 0 mm | - | - | - |
| 1777669321 | 12.78° C | 46% | 1019.4 hPa | 0 mm | - | - | - |
| 1777669261 | 12.78° C | 46% | 1019.4 hPa | 0 mm | - | - | - |
| 1777668421 | 12.22° C | 46% | 1019.5 hPa | 0 mm | - | - | - |
| 1777668360 | 12.22° C | 46% | 1019.5 hPa | 0 mm | - | - | - |
* Rain latest hour (hover to see other rain measurements)
** Current wind speed in m/s (hover to see current wind gust speed)